Time,TemperatureF,DewpointF,PressureIn,WindDirection,WindDirectionDegrees,WindSpeedMPH,WindSpeedGustMPH,Humidity,HourlyPrecipIn,Conditions,Clouds,dailyrainin,SoftwareType,DateUTC
2013-01-26 00:11:00,25.9,25.4,29.93,WNW,292,0.0,-999.0,98,-99.99,,,0.00,Acu-Link.com,2013-01-26 07:11:00,
2013-01-26 00:26:00,26.2,25.7,29.93,ENE,67,2.2,-999.0,98,-99.99,,,0.00,Acu-Link.com,2013-01-26 07:26:00,
2013-01-26 00:41:00,26.4,25.9,29.92,East,90,2.2,-999.0,98,-99.99,,,0.00,Acu-Link.com,2013-01-26 07:41:00,
2013-01-26 00:57:00,27.1,26.6,29.92,NE,45,2.7,-999.0,98,-99.99,,,0.00,Acu-Link.com,2013-01-26 07:57:00,
2013-01-26 01:12:00,25.7,25.2,29.92,NNE,22,0.0,-999.0,98,-99.99,,,0.00,Acu-Link.com,2013-01-26 08:12:00,
2013-01-26 01:27:00,25.2,24.7,29.91,NW,315,1.7,-999.0,98,-99.99,,,0.00,Acu-Link.com,2013-01-26 08:27:00,
2013-01-26 01:43:00,25.2,24.7,29.91,NNE,22,1.7,-999.0,98,-99.99,,,0.00,Acu-Link.com,2013-01-26 08:43:00,
2013-01-26 01:58:00,24.6,24.1,29.90,SSW,202,0.0,-999.0,98,-99.99,,,0.00,Acu-Link.com,2013-01-26 08:58:00,
2013-01-26 02:16:00,24.6,24.1,29.90,ESE,112,0.0,-999.0,98,-99.99,,,0.00,Acu-Link.com,2013-01-26 09:16:00,
2013-01-26 02:31:00,24.4,23.9,29.89,ENE,67,2.7,-999.0,98,-99.99,,,0.00,Acu-Link.com,2013-01-26 09:31:00,
2013-01-26 02:47:00,24.6,24.1,29.89,North,0,0.0,-999.0,98,-99.99,,,0.00,Acu-Link.com,2013-01-26 09:47:00,
2013-01-26 03:02:00,24.8,24.3,29.87,NNE,22,3.2,-999.0,98,-99.99,,,0.00,Acu-Link.com,2013-01-26 10:02:00,
2013-01-26 03:17:00,25.2,24.7,29.87,East,90,2.2,-999.0,98,-99.99,,,0.00,Acu-Link.com,2013-01-26 10:17:00,
2013-01-26 03:32:00,25.5,25.0,29.87,ENE,67,0.0,-999.0,98,-99.99,,,0.00,Acu-Link.com,2013-01-26 10:32:00,
2013-01-26 03:48:00,25.9,25.4,29.86,NNE,22,1.1,-999.0,98,-99.99,,,0.00,Acu-Link.com,2013-01-26 10:48:00,
2013-01-26 04:03:00,26.1,25.6,29.86,WSW,247,0.0,-999.0,98,-99.99,,,0.00,Acu-Link.com,2013-01-26 11:03:00,
2013-01-26 04:18:00,26.1,25.6,29.85,ENE,67,0.0,-999.0,98,-99.99,,,0.00,Acu-Link.com,2013-01-26 11:18:00,
2013-01-26 04:34:00,26.1,25.6,29.85,SSE,157,0.0,-999.0,98,-99.99,,,0.00,Acu-Link.com,2013-01-26 11:34:00,
2013-01-26 04:49:00,26.1,25.6,29.85,SSW,202,0.0,-999.0,98,-99.99,,,0.00,Acu-Link.com,2013-01-26 11:49:00,
2013-01-26 05:04:00,25.9,25.4,29.85,West,270,0.0,-999.0,98,-99.99,,,0.00,Acu-Link.com,2013-01-26 12:04:00,
2013-01-26 05:20:00,25.5,25.0,29.85,NE,45,0.0,-999.0,98,-99.99,,,0.00,Acu-Link.com,2013-01-26 12:20:00,
2013-01-26 05:35:00,25.3,24.8,29.84,NNE,22,0.0,-999.0,98,-99.99,,,0.00,Acu-Link.com,2013-01-26 12:35:00,
2013-01-26 05:50:00,25.2,24.7,29.84,NNE,22,0.0,-999.0,98,-99.99,,,0.00,Acu-Link.com,2013-01-26 12:50:00,
2013-01-26 06:06:00,25.3,24.8,29.83,WSW,247,0.0,-999.0,98,-99.99,,,0.00,Acu-Link.com,2013-01-26 13:06:00,
2013-01-26 06:21:00,25.3,24.8,29.83,WSW,247,0.0,-999.0,98,-99.99,,,0.00,Acu-Link.com,2013-01-26 13:21:00,
2013-01-26 06:37:00,25.0,24.5,29.85,West,270,0.0,-999.0,98,-99.99,,,0.00,Acu-Link.com,2013-01-26 13:37:00,
2013-01-26 06:52:00,25.2,24.7,29.83,SSE,157,0.0,-999.0,98,-99.99,,,0.00,Acu-Link.com,2013-01-26 13:52:00,
2013-01-26 07:07:00,25.7,25.2,29.82,ENE,67,0.0,-999.0,98,-99.99,,,0.00,Acu-Link.com,2013-01-26 14:07:00,
2013-01-26 07:23:00,26.1,25.6,29.81,SSW,202,0.0,-999.0,98,-99.99,,,0.00,Acu-Link.com,2013-01-26 14:23:00,
2013-01-26 07:38:00,26.6,26.1,29.82,SW,225,1.7,-999.0,98,-99.99,,,0.00,Acu-Link.com,2013-01-26 14:38:00,
2013-01-26 07:53:00,27.3,26.8,29.82,SW,225,0.0,-999.0,98,-99.99,,,0.00,Acu-Link.com,2013-01-26 14:53:00,
2013-01-26 08:09:00,28.2,27.7,29.83,South,180,0.0,-999.0,98,-99.99,,,0.00,Acu-Link.com,2013-01-26 15:09:00,
2013-01-26 08:24:00,29.1,28.6,29.83,SE,135,0.0,-999.0,98,-99.99,,,0.00,Acu-Link.com,2013-01-26 15:24:00,
2013-01-26 08:39:00,29.7,29.2,29.82,NNE,22,0.0,-999.0,98,-99.99,,,0.00,Acu-Link.com,2013-01-26 15:39:00,
2013-01-26 08:55:00,29.5,29.0,29.82,NNW,337,3.7,-999.0,98,-99.99,,,0.00,Acu-Link.com,2013-01-26 15:55:00,
2013-01-26 09:10:00,30.6,30.1,29.83,NNW,337,3.7,-999.0,98,-99.99,,,0.00,Acu-Link.com,2013-01-26 16:10:00,
2013-01-26 09:25:00,31.1,30.6,29.82,NE,45,3.7,-999.0,98,-99.99,,,0.00,Acu-Link.com,2013-01-26 16:25:00,
2013-01-26 09:40:00,30.9,30.4,29.82,NE,45,4.2,-999.0,98,-99.99,,,0.00,Acu-Link.com,2013-01-26 16:40:00,
2013-01-26 09:56:00,31.3,30.8,29.82,NE,45,2.7,-999.0,98,-99.99,,,0.00,Acu-Link.com,2013-01-26 16:56:00,
2013-01-26 10:11:00,31.8,31.3,29.83,NE,45,4.2,-999.0,98,-99.99,,,0.00,Acu-Link.com,2013-01-26 17:11:00,
2013-01-26 10:26:00,32.5,32.0,29.82,ENE,67,5.3,-999.0,98,-99.99,,,0.00,Acu-Link.com,2013-01-26 17:26:00,
2013-01-26 10:42:00,31.8,31.3,29.80,NE,45,4.7,-999.0,98,-99.99,,,0.00,Acu-Link.com,2013-01-26 17:42:00,
2013-01-26 10:57:00,32.9,32.4,29.80,ENE,67,4.2,-999.0,98,-99.99,,,0.00,Acu-Link.com,2013-01-26 17:57:00,
2013-01-26 11:13:00,33.4,32.9,29.78,NE,45,3.7,-999.0,98,-99.99,,,0.00,Acu-Link.com,2013-01-26 18:13:00,
2013-01-26 11:28:00,35.2,34.7,29.77,ENE,67,3.2,-999.0,98,-99.99,,,0.00,Acu-Link.com,2013-01-26 18:28:00,
2013-01-26 11:43:00,37.2,36.7,29.76,ENE,67,3.7,-999.0,98,-99.99,,,0.00,Acu-Link.com,2013-01-26 18:43:00,
2013-01-26 11:58:00,36.7,36.2,29.75,NE,45,2.7,-999.0,98,-99.99,,,0.00,Acu-Link.com,2013-01-26 18:58:00,
2013-01-26 12:14:00,35.8,35.3,29.73,ENE,67,2.2,-999.0,98,-99.99,,,0.01,Acu-Link.com,2013-01-26 19:14:00,
2013-01-26 12:29:00,36.1,35.6,29.72,NE,45,3.2,-999.0,98,-99.99,,,0.02,Acu-Link.com,2013-01-26 19:29:00,
2013-01-26 12:44:00,35.4,34.9,29.70,ENE,67,3.2,-999.0,98,-99.99,,,0.03,Acu-Link.com,2013-01-26 19:44:00,
2013-01-26 13:00:00,35.6,35.1,29.69,East,90,2.7,-999.0,98,-99.99,,,0.04,Acu-Link.com,2013-01-26 20:00:00,
2013-01-26 13:15:00,35.4,34.9,29.68,ENE,67,2.7,-999.0,98,-99.99,,,0.04,Acu-Link.com,2013-01-26 20:15:00,
2013-01-26 13:30:00,36.7,36.2,29.66,East,90,2.2,-999.0,98,-99.99,,,0.04,Acu-Link.com,2013-01-26 20:30:00,
2013-01-26 13:46:00,35.8,35.3,29.65,ENE,67,1.1,-999.0,98,-99.99,,,0.04,Acu-Link.com,2013-01-26 20:46:00,
2013-01-26 14:01:00,36.5,36.0,29.66,ESE,112,0.0,-999.0,98,-99.99,,,0.04,Acu-Link.com,2013-01-26 21:01:00,
2013-01-26 14:16:00,39.0,38.5,29.65,ESE,112,1.7,-999.0,98,-99.99,,,0.04,Acu-Link.com,2013-01-26 21:16:00,
2013-01-26 14:31:00,38.5,38.0,29.64,East,90,0.0,-999.0,98,-99.99,,,0.04,Acu-Link.com,2013-01-26 21:31:00,
2013-01-26 14:47:00,36.9,36.4,29.63,NNW,337,3.7,-999.0,98,-99.99,,,0.04,Acu-Link.com,2013-01-26 21:47:00,
2013-01-26 15:02:00,37.4,36.9,29.63,NNW,337,0.0,-999.0,98,-99.99,,,0.04,Acu-Link.com,2013-01-26 22:02:00,
2013-01-26 15:17:00,36.9,36.4,29.63,NW,315,2.2,-999.0,98,-99.99,,,0.04,Acu-Link.com,2013-01-26 22:17:00,
2013-01-26 15:33:00,35.6,35.1,29.61,NNE,22,6.8,-999.0,98,-99.99,,,0.06,Acu-Link.com,2013-01-26 22:33:00,
2013-01-26 15:48:00,35.2,34.7,29.59,NNW,337,5.3,-999.0,98,-99.99,,,0.08,Acu-Link.com,2013-01-26 22:48:00,
2013-01-26 16:03:00,34.9,34.4,29.58,NNW,337,6.8,-999.0,98,-99.99,,,0.09,Acu-Link.com,2013-01-26 23:03:00,
2013-01-26 16:19:00,34.7,34.2,29.59,NNE,22,5.3,-999.0,98,-99.99,,,0.10,Acu-Link.com,2013-01-26 23:19:00,
2013-01-26 16:34:00,33.6,33.1,29.58,ENE,67,2.7,-999.0,98,-99.99,,,0.10,Acu-Link.com,2013-01-26 23:34:00,
2013-01-26 16:50:00,33.4,32.9,29.56,ENE,67,4.7,-999.0,98,-99.99,,,0.11,Acu-Link.com,2013-01-26 23:50:00,
2013-01-26 17:05:00,33.4,32.9,29.56,NNE,22,4.2,-999.0,98,-99.99,,,0.11,Acu-Link.com,2013-01-27 00:05:00,
2013-01-26 17:20:00,33.1,32.6,29.55,NE,45,2.2,-999.0,98,-99.99,,,0.12,Acu-Link.com,2013-01-27 00:20:00,
2013-01-26 17:35:00,33.1,32.6,29.56,NE,45,2.2,-999.0,98,-99.99,,,0.12,Acu-Link.com,2013-01-27 00:35:00,
2013-01-26 17:50:00,32.9,32.4,29.55,North,0,2.2,-999.0,98,-99.99,,,0.12,Acu-Link.com,2013-01-27 00:50:00,
2013-01-26 18:05:00,32.7,32.2,29.55,NNE,22,2.7,-999.0,98,-99.99,,,0.13,Acu-Link.com,2013-01-27 01:05:00,
2013-01-26 18:21:00,32.5,32.0,29.55,NNE,22,2.2,-999.0,98,-99.99,,,0.14,Acu-Link.com,2013-01-27 01:21:00,
2013-01-26 18:36:00,32.5,32.0,29.55,NNW,337,0.0,-999.0,98,-99.99,,,0.14,Acu-Link.com,2013-01-27 01:36:00,
2013-01-26 18:51:00,32.5,32.0,29.55,ESE,112,0.0,-999.0,98,-99.99,,,0.14,Acu-Link.com,2013-01-27 01:51:00,
2013-01-26 19:07:00,32.4,31.9,29.56,West,270,0.0,-999.0,98,-99.99,,,0.14,Acu-Link.com,2013-01-27 02:07:00,
2013-01-26 19:22:00,32.4,31.9,29.55,SW,225,1.1,-999.0,98,-99.99,,,0.14,Acu-Link.com,2013-01-27 02:22:00,
2013-01-26 19:37:00,32.2,31.7,29.55,SSW,202,0.0,-999.0,98,-99.99,,,0.14,Acu-Link.com,2013-01-27 02:37:00,
2013-01-26 19:52:00,32.2,31.7,29.54,WSW,247,0.0,-999.0,98,-99.99,,,0.14,Acu-Link.com,2013-01-27 02:52:00,
2013-01-26 20:08:00,32.0,31.5,29.54,SSW,202,0.0,-999.0,98,-99.99,,,0.14,Acu-Link.com,2013-01-27 03:08:00,
2013-01-26 20:23:00,32.0,31.5,29.53,WSW,247,0.0,-999.0,98,-99.99,,,0.14,Acu-Link.com,2013-01-27 03:23:00,
2013-01-26 20:38:00,32.0,31.5,29.53,SSW,202,0.0,-999.0,98,-99.99,,,0.14,Acu-Link.com,2013-01-27 03:38:00,
2013-01-26 20:53:00,32.0,31.5,29.52,West,270,0.0,-999.0,98,-99.99,,,0.14,Acu-Link.com,2013-01-27 03:53:00,
2013-01-26 21:09:00,32.0,31.5,29.51,NNW,337,0.0,-999.0,98,-99.99,,,0.14,Acu-Link.com,2013-01-27 04:09:00,
2013-01-26 21:24:00,32.0,31.5,29.51,NE,45,0.0,-999.0,98,-99.99,,,0.14,Acu-Link.com,2013-01-27 04:24:00,
2013-01-26 21:39:00,32.0,31.5,29.51,SW,225,0.0,-999.0,98,-99.99,,,0.14,Acu-Link.com,2013-01-27 04:39:00,
2013-01-26 21:55:00,32.0,31.5,29.51,South,180,0.0,-999.0,98,-99.99,,,0.14,Acu-Link.com,2013-01-27 04:55:00,
2013-01-26 22:10:00,32.0,31.5,29.50,SW,225,0.0,-999.0,98,-99.99,,,0.14,Acu-Link.com,2013-01-27 05:10:00,
2013-01-26 22:26:00,32.0,31.5,29.51,SW,225,0.0,-999.0,98,-99.99,,,0.14,Acu-Link.com,2013-01-27 05:26:00,
2013-01-26 22:41:00,32.0,31.5,29.51,SSW,202,0.0,-999.0,98,-99.99,,,0.14,Acu-Link.com,2013-01-27 05:41:00,
2013-01-26 22:56:00,32.0,31.5,29.52,WSW,247,0.0,-999.0,98,-99.99,,,0.14,Acu-Link.com,2013-01-27 05:56:00,
2013-01-26 23:11:00,32.0,31.5,29.52,SW,225,0.0,-999.0,98,-99.99,,,0.14,Acu-Link.com,2013-01-27 06:11:00,
2013-01-26 23:27:00,32.0,31.5,29.51,NNW,337,0.0,-999.0,98,-99.99,,,0.14,Acu-Link.com,2013-01-27 06:27:00,
2013-01-26 23:42:00,32.0,31.5,29.52,SSE,157,0.0,-999.0,98,-99.99,,,0.14,Acu-Link.com,2013-01-27 06:42:00,
2013-01-26 23:57:00,32.0,31.5,29.53,SW,225,0.0,-999.0,98,-99.99,,,0.14,Acu-Link.com,2013-01-27 06:57:00,